Date,TemperatureHighF,TemperatureAvgF,TemperatureLowF,DewpointHighF,DewpointAvgF,DewpointLowF,HumidityHigh,HumidityAvg,HumidityLow,PressureMaxIn,PressureMinIn,WindSpeedMaxMPH,WindSpeedAvgMPH,GustSpeedMaxMPH,PrecipitationSumIn
2013-1-1,19.7,5.3,-5.4,14.8,-2.3,-12.7,81,70,58,30.28,30.00,0,0,0,0.00
2013-1-2,20.8,17.7,14.4,17.5,13.2,10.4,87,82,79,30.04,29.92,0,0,0,0.00
2013-1-3,21.1,15.2,10.7,17.8,8.4,2.8,87,74,58,30.23,30.04,0,0,0,0.00
2013-1-4,31.8,20.8,13.8,17.6,12.9,9.3,83,72,53,30.09,29.98,0,0,0,0.01
2013-1-5,26.1,18.3,12.3,14.5,11.3,8.1,85,74,60,30.05,29.81,0,0,0,0.00
2013-1-6,25.7,17.3,11.4,14.0,9.7,5.5,83,72,51,30.19,29.97,0,0,0,0.00
2013-1-7,37.2,28.5,15.6,24.3,20.5,10.5,85,72,59,29.99,29.83,0,0,0,0.02
2013-1-8,33.5,27.0,18.6,28.2,21.5,14.3,88,80,68,29.92,29.71,0,0,0,0.01
2013-1-9,35.6,30.5,25.4,26.6,21.8,19.3,84,71,54,30.30,29.84,0,0,0,0.01
2013-1-10,40.8,32.8,25.6,32.3,24.5,20.4,92,73,47,30.25,29.66,0,0,0,0.18
2013-1-11,40.5,36.9,34.6,39.2,35.5,32.5,95,94,92,29.66,29.28,0,0,0,0.00
2013-1-12,38.6,16.4,5.8,37.0,8.5,-3.0,95,71,58,30.06,29.29,0,0,0,0.00
2013-1-13,11.4,6.2,3.0,1.4,-2.1,-4.9,73,68,62,30.23,30.04,0,0,0,0.00
2013-1-14,14.6,8.9,4.5,2.2,0.0,-1.8,78,67,54,30.40,30.23,0,0,0,0.00
2013-1-15,29.8,19.9,9.0,16.1,10.2,2.2,83,67,51,30.26,29.78,0,0,0,0.00
2013-1-16,36.9,26.5,14.1,31.8,16.9,-2.7,91,68,44,30.17,29.59,0,0,0,0.00
2013-1-17,21.6,13.9,7.4,8.5,1.0,-5.4,69,56,48,30.37,30.19,0,0,0,0.00
2013-1-18,41.5,29.2,16.9,28.8,21.0,8.5,84,72,59,30.26,29.66,0,0,0,0.00
2013-1-19,39.8,23.6,3.4,30.6,15.4,-7.3,90,71,49,30.18,29.60,0,0,0,0.01
2013-1-20,10.2,4.0,-1.2,-2.0,-7.6,-12.8,66,58,46,30.40,30.19,0,0,0,0.00
2013-1-21,-1.4,-5.0,-9.6,-12.6,-16.8,-21.1,64,56,46,30.36,30.26,0,0,0,0.00
2013-1-22,4.8,-2.5,-10.3,-5.4,-14.3,-20.4,62,56,46,30.42,30.25,0,0,0,0.00
2013-1-23,18.0,7.5,-3.7,7.2,-4.7,-18.3,76,57,44,30.60,30.14,0,0,0,0.00
2013-1-24,12.9,2.5,-5.4,-0.3,-10.8,-18.7,57,53,49,30.68,30.17,0,0,0,0.00
2013-1-25,20.2,13.6,5.6,9.6,1.9,-5.0,70,59,49,30.29,29.92,0,0,0,0.00
2013-1-26,23.3,13.6,1.7,10.2,1.6,-6.8,73,59,47,30.34,30.08,0,0,0,0.00
2013-1-27,33.4,29.2,23.2,29.2,20.8,10.2,92,72,54,30.08,29.73,0,0,0,0.01
2013-1-28,35.6,32.4,30.6,33.5,30.3,28.6,93,92,90,29.83,29.56,0,0,0,0.16
2013-1-29,36.8,32.7,27.9,32.9,28.8,21.0,94,86,75,29.68,29.45,0,0,0,0.11
2013-1-30,27.9,18.4,9.0,21.3,10.0,-0.1,77,69,62,29.72,29.58,0,0,0,0.00
2013-1-31,9.0,2.6,-6.8,-0.3,-7.7,-17.4,71,61,55,30.27,29.73,0,0,0,0.00
2013-2-1,5.0,-2.5,-11.2,-1.8,-13.2,-20.3,74,60,45,30.33,30.05,0,0,0,0.00
2013-2-2,14.1,7.6,1.8,4.1,-1.4,-5.2,76,67,52,30.18,29.95,0,0,0,0.00
2013-2-3,15.4,11.2,4.3,6.8,2.9,-2.7,78,69,54,30.07,29.94,0,0,0,0.00
2013-2-4,18.9,12.3,5.0,8.2,1.5,-4.2,77,62,46,30.04,29.72,0,0,0,0.00
2013-2-5,31.8,22.0,9.3,24.7,14.7,1.7,90,74,58,30.04,29.61,0,0,0,0.01
2013-2-6,25.4,16.4,5.8,18.6,10.5,-0.7,81,77,71,30.08,29.90,0,0,0,0.00
2013-2-7,27.5,25.9,22.7,22.7,21.0,18.0,88,82,74,30.20,29.94,0,0,0,0.00
2013-2-8,27.6,23.5,19.4,20.3,14.7,11.4,82,69,53,30.34,30.17,0,0,0,0.01
2013-2-9,32.2,28.7,25.0,27.3,24.1,20.0,88,83,77,30.17,29.87,0,0,0,0.00
2013-2-10,33.5,30.8,28.4,31.4,28.0,24.7,93,89,85,29.87,29.19,0,0,0,0.00
2013-2-11,30.4,25.6,18.1,28.6,19.6,11.5,93,78,65,29.99,29.25,0,0,0,0.00
2013-2-12,35.3,24.7,14.3,22.9,17.0,8.2,84,73,59,30.00,29.75,0,0,0,0.15
2013-2-13,39.9,29.0,18.6,30.9,22.8,14.3,93,78,57,29.75,29.48,0,0,0,0.11
2013-2-14,32.8,26.8,15.6,31.0,19.1,3.7,93,74,42,30.13,29.50,0,0,0,0.08
2013-2-15,19.4,12.4,6.5,5.0,0.9,-2.1,73,60,48,30.27,30.13,0,0,0,0.00
2013-2-16,19.5,9.9,1.8,6.1,0.3,-5.2,76,65,53,30.23,30.08,0,0,0,0.00
2013-2-17,31.8,21.4,9.2,20.2,12.3,1.7,76,68,59,30.08,29.57,0,0,0,0.00
2013-2-18,34.1,24.2,8.6,28.9,16.6,2.0,82,73,64,29.75,29.45,0,0,0,0.01
2013-2-19,9.9,5.8,0.3,1.9,-5.6,-10.1,73,59,50,30.35,29.76,0,0,0,0.00
2013-2-20,17.0,7.7,-3.3,2.4,-3.8,-11.4,71,59,48,30.46,30.35,0,0,0,0.00
2013-2-21,22.7,14.7,6.9,8.7,3.2,-1.4,71,60,51,30.43,30.19,0,0,0,0.00
2013-2-22,20.2,20.2,20.2,14.7,14.7,14.7,79,79,79,29.94,29.94,0,0,0,0.00
2013-2-23,21.6,21.6,21.6,15.8,15.8,15.6,78,78,78,29.91,29.90,0,0,0,0.02
2013-2-24,36.8,24.0,10.5,21.4,15.3,5.0,84,70,53,30.05,29.93,0,0,0,0.02
2013-2-25,35.2,27.4,21.1,22.6,19.9,14.7,81,73,56,30.06,29.98,0,0,0,0.00
2013-2-26,36.6,28.1,16.1,26.1,21.1,11.0,87,75,63,30.00,29.82,0,0,0,0.00
2013-2-27,39.2,32.3,28.1,25.6,23.6,20.9,79,70,53,29.97,29.80,0,0,0,0.00
2013-2-28,30.7,28.6,24.1,21.6,19.2,14.2,76,68,63,30.17,29.96,0,0,0,0.00
2013-3-1,29.8,25.0,18.6,17.0,14.2,10.1,69,63,55,30.31,30.18,0,0,0,0.00
2013-3-2,30.3,21.7,10.7,11.9,8.4,4.1,81,58,35,30.32,30.13,0,0,0,0.00
2013-3-3,32.5,25.8,18.3,12.6,9.0,5.8,64,49,37,30.12,29.92,0,0,0,0.00
2013-3-4,27.3,25.4,23.5,21.2,16.2,8.2,86,69,44,29.99,29.89,0,0,0,0.00
2013-3-5,32.7,26.6,22.2,24.2,21.6,16.7,89,82,69,30.26,29.92,0,0,0,0.00
2013-3-6,31.2,23.6,14.1,18.3,15.5,7.6,81,71,56,30.38,30.25,0,0,0,0.00
2013-3-7,31.5,23.8,10.4,17.7,13.6,4.4,78,65,53,30.33,30.23,0,0,0,0.02
2013-3-8,38.3,30.0,19.1,28.4,22.2,14.5,84,73,61,30.27,30.02,0,0,0,0.04
2013-3-9,36.9,35.3,33.1,35.1,32.8,27.2,94,91,75,30.02,29.63,0,0,0,0.31
2013-3-10,35.2,33.3,30.4,33.6,29.2,24.4,94,85,77,29.88,29.70,0,0,0,0.01
2013-3-11,31.8,28.4,23.0,23.7,20.8,15.9,80,73,64,29.79,29.68,0,0,0,0.00
2013-3-12,30.3,25.2,20.6,18.6,14.5,9.1,76,64,47,30.14,29.77,0,0,0,0.00
2013-3-13,34.0,23.6,13.8,17.2,12.1,8.5,81,63,39,30.33,30.14,0,0,0,0.00
2013-3-14,40.5,31.1,23.9,27.1,22.2,16.0,86,70,57,30.20,29.95,0,0,0,0.01
2013-3-15,34.4,31.6,25.3,30.9,27.1,21.4,89,83,78,29.95,29.77,0,0,0,0.02
2013-3-16,28.8,22.4,14.1,21.4,12.6,2.2,86,67,50,30.20,29.84,0,0,0,0.00
2013-3-17,27.5,18.5,8.1,16.1,4.9,-2.6,64,55,45,30.24,29.83,0,0,0,0.00
2013-3-18,28.7,23.0,12.3,26.1,15.6,4.4,90,73,57,29.83,29.54,0,0,0,0.00
2013-3-19,24.8,14.9,6.5,6.1,1.4,-4.6,71,55,42,30.16,29.77,0,0,0,0.01
2013-3-20,21.8,13.9,4.7,3.0,-1.0,-5.8,61,52,41,30.20,30.08,0,0,0,0.00
2013-3-21,27.8,17.6,4.5,9.5,3.8,-4.4,72,55,40,30.10,30.01,0,0,0,0.01
2013-3-22,37.2,24.0,8.8,16.2,9.4,0.7,74,54,37,30.05,29.98,0,0,0,0.02
2013-3-23,39.3,28.8,17.2,18.7,14.9,8.4,73,57,38,30.10,30.01,0,0,0,0.00
2013-3-24,33.7,30.1,26.9,23.4,20.9,18.1,77,69,56,30.04,29.92,0,0,0,0.00
2013-3-25,39.5,31.4,22.5,20.4,17.5,13.9,69,57,42,30.15,29.98,0,0,0,0.00
2013-3-26,42.5,32.5,26.3,22.0,19.4,17.8,71,59,40,30.24,30.15,0,0,0,0.00
2013-3-27,43.8,32.9,20.8,20.5,18.2,14.4,80,57,33,30.28,30.23,0,0,0,0.00
2013-3-28,45.4,34.5,21.9,25.3,21.0,17.5,86,60,35,30.28,30.21,0,0,0,0.00
2013-3-29,50.2,39.0,30.1,34.1,27.9,20.7,74,65,49,30.22,30.00,0,0,0,0.00
2013-3-30,53.3,43.3,35.0,42.2,35.9,30.7,91,76,58,29.99,29.76,0,0,0,0.22
2013-3-31,42.1,34.3,24.2,30.9,23.2,12.1,90,66,33,30.03,29.73,0,0,0,0.00
2013-4-1,34.9,26.6,18.0,15.8,12.3,9.5,70,56,37,30.21,30.03,0,0,0,0.00
2013-4-2,37.6,28.1,17.8,16.8,13.4,9.5,79,56,33,30.30,30.20,0,0,0,0.00
2013-4-3,45.4,35.2,19.9,29.6,20.0,11.8,77,55,32,30.35,29.98,0,0,0,0.00
2013-4-4,52.0,43.4,33.8,33.0,26.5,20.9,72,52,33,30.10,29.92,0,0,0,0.00
2013-4-5,44.5,34.8,28.2,32.1,23.0,15.3,90,64,34,30.18,29.83,0,0,0,0.08
2013-4-6,54.7,41.9,35.5,42.1,33.5,26.8,90,73,51,29.82,29.42,0,0,0,0.11
2013-4-7,47.7,40.9,34.4,37.7,32.9,29.5,86,74,56,29.87,29.65,0,0,0,0.10
2013-4-8,45.8,42.3,39.9,40.9,39.0,35.5,94,88,80,29.97,29.59,0,0,0,0.56
2013-4-9,43.8,38.4,33.2,35.5,31.1,25.3,90,76,56,30.11,29.90,0,0,0,0.20
2013-4-10,38.3,34.1,30.1,28.2,24.9,21.0,90,70,52,30.13,29.84,0,0,0,0.08
2013-4-11,36.0,33.6,30.9,31.7,28.9,23.1,91,83,61,29.84,29.62,0,0,0,0.18
2013-4-12,37.9,32.3,28.1,29.5,27.1,25.5,91,82,63,29.77,29.61,0,0,0,0.06
2013-4-13,37.5,33.2,28.8,27.2,24.9,22.3,89,72,59,29.90,29.76,0,0,0,0.06
2013-4-14,35.6,32.5,29.7,33.8,27.5,21.5,93,82,66,29.88,29.42,0,0,0,0.33
2013-4-15,39.3,35.6,31.8,33.8,28.5,24.9,93,76,65,29.91,29.45,0,0,0,0.07
2013-4-16,45.8,38.4,32.7,28.7,26.5,25.2,81,63,48,30.25,29.90,0,0,0,0.00
2013-4-17,41.2,37.7,34.0,34.9,28.8,24.9,92,71,61,30.24,29.85,0,0,0,0.16
2013-4-18,34.6,32.7,31.2,32.5,30.6,29.4,93,92,89,29.86,29.43,0,0,0,0.10
2013-4-19,39.1,33.2,28.4,29.4,25.3,17.2,93,74,54,29.92,29.41,0,0,0,0.26
2013-4-20,42.3,32.3,20.5,17.7,14.5,7.6,76,50,27,30.24,29.93,0,0,0,0.42
2013-4-21,49.1,40.4,33.8,44.8,34.4,16.9,93,80,49,30.24,29.93,0,0,0,0.13
2013-4-22,44.9,37.6,32.2,37.2,32.2,28.5,94,82,54,30.13,30.05,0,0,0,0.12
2013-4-23,43.1,35.4,28.4,30.7,25.8,18.4,94,70,45,30.10,29.99,0,0,0,0.48
2013-4-24,53.1,37.6,25.8,33.5,26.5,18.3,90,67,35,30.00,29.84,0,0,0,0.01
2013-4-25,51.3,42.0,31.8,33.1,28.1,23.6,89,61,36,30.14,29.89,0,0,0,0.00
2013-4-26,72.8,57.9,44.3,44.9,37.0,27.9,69,47,28,30.02,29.88,0,0,0,0.00
2013-4-27,76.0,60.7,40.3,45.8,37.2,32.6,76,45,23,30.03,29.77,0,0,0,0.00
2013-4-28,79.9,64.7,51.6,53.4,46.2,43.1,90,54,30,29.77,29.52,0,0,0,0.11
2013-4-29,75.4,62.5,49.4,55.9,45.7,33.6,93,58,30,29.70,29.43,0,0,0,0.00
2013-4-30,70.1,64.7,56.5,57.7,45.5,28.2,80,52,26,29.84,29.28,0,0,0,0.00
2013-5-1,56.5,41.6,34.7,39.4,34.1,28.2,92,77,44,30.41,29.86,0,0,0,0.35
2013-5-2,49.4,40.8,36.3,30.3,26.8,23.8,76,58,41,30.47,30.34,0,0,0,0.00
2013-5-3,38.0,35.0,32.8,33.1,28.5,23.2,88,78,58,30.34,30.10,0,0,0,0.19
2013-5-4,50.1,40.3,33.4,40.8,35.6,30.5,92,84,69,30.10,30.05,0,0,0,0.07
2013-5-5,64.3,50.3,38.8,46.5,40.3,35.0,86,70,50,30.10,29.98,0,0,0,0.00
2013-5-6,68.3,61.6,49.6,47.6,46.3,43.3,79,58,44,30.01,29.90,0,0,0,0.00
2013-5-7,80.3,65.8,50.1,50.6,45.9,40.2,87,53,26,29.95,29.83,0,0,0,0.00
2013-5-8,77.7,65.2,56.9,57.8,50.5,43.2,86,62,30,29.89,29.83,0,0,0,0.13
2013-5-9,59.3,54.0,44.1,55.4,47.2,28.2,89,78,53,30.01,29.83,0,0,0,0.06
2013-5-10,67.4,52.1,36.8,31.2,27.2,20.4,69,42,18,30.04,29.80,0,0,0,0.00
2013-5-12,59.8,47.9,35.2,26.1,21.1,16.2,59,37,20,30.15,29.99,0,0,0,0.00
2013-5-13,70.3,55.8,36.9,47.3,33.5,24.2,66,45,26,30.02,29.52,0,0,0,0.01
2013-5-14,94.5,73.3,50.8,54.0,45.9,34.1,84,43,17,29.56,29.31,0,0,0,0.00
2013-5-15,77.9,67.2,53.3,49.1,45.5,42.0,71,47,28,29.79,29.55,0,0,0,0.00
2013-5-16,83.0,70.6,52.8,48.6,42.3,29.8,78,40,22,29.79,29.72,0,0,0,0.00
2013-5-17,56.5,56.5,56.5,54.2,54.2,54.2,92,92,92,29.88,29.87,0,0,0,0.00
2013-5-18,80.5,64.5,55.4,64.4,57.9,53.2,95,81,54,29.90,29.67,0,0,0,0.88
2013-5-19,82.4,69.2,63.5,68.1,63.3,61.4,95,83,53,29.68,29.42,0,0,0,1.19
2013-5-20,73.0,66.2,59.6,63.2,59.4,54.9,95,80,57,29.45,29.38,0,0,0,1.39
2013-5-21,60.1,57.2,49.4,58.4,54.6,47.2,95,91,83,29.60,29.40,0,0,0,0.12
2013-5-22,53.3,49.8,46.2,49.9,47.0,44.3,94,90,77,29.89,29.59,0,0,0,0.92
2013-5-23,65.3,54.7,43.6,44.3,34.3,27.3,82,50,26,30.24,29.89,0,0,0,3.11
2013-5-24,69.9,56.2,39.3,54.1,38.2,27.7,90,54,30,30.29,30.08,0,0,0,0.01
2013-5-25,62.7,56.9,52.5,51.6,47.1,41.9,93,71,54,30.16,30.11,0,0,0,0.00
2013-5-26,58.7,56.1,53.3,47.0,41.5,36.0,66,58,46,30.13,29.95,0,0,0,0.00
2013-5-27,60.7,57.2,54.5,54.9,50.2,45.7,92,78,65,29.95,29.72,0,0,0,0.01
2013-5-28,60.1,56.5,53.5,56.1,53.6,50.9,93,90,86,29.73,29.61,0,0,0,0.00
2013-5-29,75.8,65.6,55.0,69.7,60.7,51.9,93,84,67,29.71,29.51,0,0,0,0.01
2013-5-30,77.0,69.2,63.9,65.5,62.4,59.6,95,80,55,29.55,29.38,0,0,0,0.00
2013-5-31,80.1,68.8,61.2,63.1,57.7,51.0,93,70,45,29.43,29.37,0,0,0,0.01
2013-6-1,73.9,61.7,52.6,61.4,52.8,43.0,89,73,51,29.82,29.42,0,0,0,0.03
2013-6-2,67.9,58.0,50.1,44.2,40.7,36.5,70,54,34,29.98,29.82,0,0,0,0.00
2013-6-3,72.5,61.1,47.3,48.8,43.7,37.3,91,56,31,29.96,29.83,0,0,0,0.00
2013-6-4,63.7,57.9,55.6,53.2,43.7,-99.9,88,65,54,29.98,29.87,0,-35,0,0.04
2013-6-5,-200.0,0.0,200.0,-99.9,-99.9,-99.9,0,0,100,29.94,29.83,0,-999,0,0.00
2013-6-7,54.7,54.4,54.4,50.9,50.8,50.6,88,88,87,29.92,29.92,0,0,0,0.00
2013-6-8,69.1,69.1,69.1,51.8,51.8,51.8,54,54,54,29.77,29.77,0,0,0,0.00
2013-6-9,66.4,60.6,56.6,61.1,56.8,53.0,93,88,69,29.78,29.65,0,0,0,0.47
2013-6-10,75.0,66.1,59.2,62.9,59.8,56.5,94,81,60,29.73,29.68,0,0,0,0.00
2013-6-11,76.4,67.5,57.0,66.0,61.7,54.4,93,82,66,29.77,29.68,0,0,0,0.00
2013-6-12,74.2,66.9,61.2,66.8,61.0,51.5,95,82,61,29.82,29.64,0,0,0,0.57
2013-6-13,78.7,69.0,57.6,56.0,52.4,49.1,77,57,42,29.97,29.82,0,0,0,0.00
2013-6-14,78.8,70.4,58.4,64.0,55.9,48.4,86,61,49,29.96,29.74,0,0,0,0.05
2013-6-15,74.9,68.1,63.7,67.6,63.9,60.4,92,87,77,29.78,29.72,0,0,0,0.26
2013-6-16,86.3,77.9,58.6,59.3,52.3,45.8,94,45,26,29.81,29.72,0,0,0,0.02
2013-6-17,82.8,73.0,59.5,59.8,56.3,51.7,90,59,36,29.81,29.76,0,0,0,0.00
2013-6-18,75.4,67.4,57.3,58.7,53.9,48.5,74,63,51,29.97,29.90,0,0,0,0.00
2013-6-19,85.3,73.7,60.4,61.1,57.1,53.4,82,58,37,29.94,29.81,0,0,0,0.00
2013-6-20,89.9,79.5,70.9,65.8,61.9,58.1,72,56,40,29.87,29.74,0,0,0,0.00
2013-6-21,81.4,76.8,65.2,66.4,64.4,62.1,94,67,52,29.85,29.66,0,0,0,1.32
2013-6-23,77.7,73.7,69.9,65.7,64.8,64.1,85,74,63,29.74,29.68,0,0,0,0.37
2013-6-24,83.0,73.7,64.5,72.5,66.2,61.8,93,78,56,29.78,29.67,0,0,0,0.16
2013-6-25,85.3,76.5,65.2,72.7,66.8,61.6,90,73,53,29.70,29.57,0,0,0,0.00
2013-6-26,88.2,79.6,72.7,78.0,70.1,62.7,94,75,51,29.67,29.52,0,0,0,0.05
2013-6-27,88.2,78.1,69.3,66.1,60.5,52.0,88,58,30,29.67,29.64,0,0,0,0.00
2013-6-28,78.8,72.0,66.3,65.1,59.7,55.3,89,66,50,29.67,29.62,0,0,0,0.09
2013-6-29,76.7,69.4,62.6,62.8,57.0,48.4,93,68,38,29.85,29.62,0,0,0,1.29
2013-6-30,82.0,70.8,58.6,56.3,51.5,44.7,81,53,29,29.98,29.86,0,0,0,0.00
2013-7-1,84.3,73.5,60.7,60.2,55.4,52.0,88,56,35,30.06,29.98,0,0,0,0.63
2013-7-2,83.0,73.5,61.3,54.5,51.6,45.4,77,48,32,30.04,29.93,0,0,0,0.00
2013-7-3,84.0,72.7,59.6,59.3,52.1,45.2,86,53,26,29.94,29.82,0,0,0,0.05
2013-7-4,89.7,77.6,65.3,62.5,56.1,52.7,71,50,30,29.83,29.72,0,0,0,0.00
2013-7-5,88.8,79.9,70.9,62.9,59.6,55.5,61,50,41,29.76,29.67,0,0,0,0.00
2013-7-6,89.7,79.9,73.9,65.4,61.8,59.4,63,55,40,29.74,29.66,0,0,0,0.00
2013-7-7,91.0,81.9,73.5,69.4,66.4,61.7,82,60,49,29.74,29.67,0,0,0,0.00
2013-7-8,87.2,75.9,66.6,70.1,66.4,63.2,90,74,53,29.87,29.74,0,0,0,0.00
2013-7-9,84.7,77.8,70.8,71.5,68.4,63.0,95,74,61,29.82,29.63,0,0,0,0.51
2013-7-10,82.6,73.6,63.1,64.2,56.1,51.4,78,56,36,29.92,29.78,0,0,0,0.00
2013-7-11,85.5,74.7,62.0,61.3,56.7,51.9,88,57,34,29.99,29.84,0,0,0,0.00
2013-7-12,76.0,74.2,72.5,55.5,55.3,54.9,55,52,48,29.86,29.86,0,0,0,0.00
2013-7-13,71.5,71.5,71.5,59.1,59.1,59.1,65,65,65,29.93,29.93,0,0,0,2.77
2013-7-14,85.7,77.0,70.4,66.6,63.5,59.4,78,64,46,30.04,29.93,0,0,0,0.00
2013-7-15,89.3,79.5,69.3,68.3,65.4,63.4,85,64,43,30.10,30.02,0,0,0,0.00
2013-7-16,92.3,83.5,75.8,72.3,70.2,67.8,85,65,48,30.07,30.02,0,0,0,0.00
2013-7-17,92.9,83.4,74.4,72.3,70.1,68.0,86,66,48,30.10,29.97,0,0,0,0.00
2013-7-18,92.7,84.8,77.2,71.9,70.0,67.3,79,62,47,29.96,29.62,0,0,0,0.00
2013-7-19,85.3,80.8,74.0,70.9,63.8,58.1,79,57,42,29.75,29.57,0,0,0,0.00
2013-7-20,80.1,73.2,66.4,63.2,59.7,53.9,83,64,47,29.82,29.73,0,0,0,0.00
2013-7-21,80.5,70.8,60.4,67.5,59.5,47.2,93,68,53,29.84,29.68,0,0,0,0.15
2013-7-22,86.1,74.3,67.8,71.0,63.7,55.0,89,71,47,29.70,29.54,0,0,0,0.00
2013-7-23,76.1,69.7,61.8,55.1,52.7,50.1,78,56,42,29.89,29.71,0,0,0,0.00
2013-7-24,78.6,68.5,61.0,58.1,53.8,49.6,68,60,47,29.96,29.85,0,0,0,0.00
2013-7-25,82.0,73.1,64.5,65.6,59.9,56.3,80,64,47,29.86,29.77,0,0,0,0.00
2013-7-26,71.6,65.2,58.4,65.4,55.7,45.5,90,72,57,29.97,29.77,0,0,0,0.14
2013-7-27,66.3,58.0,53.3,52.1,47.7,44.8,79,69,51,29.97,29.83,0,0,0,0.05
2013-7-28,73.5,61.8,52.8,54.1,49.0,45.1,78,64,47,29.94,29.86,0,0,0,0.00
2013-7-29,79.4,69.6,53.6,56.8,53.5,50.3,93,59,40,30.01,29.94,0,0,0,0.00
2013-7-30,71.6,68.3,64.8,64.1,61.1,55.1,87,78,60,29.99,29.93,0,0,0,0.01
2013-7-31,80.5,69.6,62.1,66.7,58.9,48.9,93,71,40,29.96,29.86,0,0,0,0.00
2013-8-1,83.2,70.5,57.6,59.6,54.4,50.4,86,59,35,29.92,29.73,0,0,0,0.00
2013-8-2,78.6,69.6,60.9,59.6,53.5,48.5,81,59,36,29.92,29.72,0,0,0,0.00
2013-8-3,79.4,67.2,55.9,58.1,51.5,47.0,87,60,37,30.06,29.92,0,0,0,0.00
2013-8-4,74.4,65.8,55.3,56.4,52.3,48.8,85,63,46,30.12,29.89,0,0,0,0.00
2013-8-5,77.9,68.8,61.6,67.3,62.1,54.6,94,80,63,29.91,29.66,0,0,0,0.54
2013-8-6,84.1,69.5,58.3,68.4,60.7,55.4,95,75,52,29.72,29.56,0,0,0,0.75
2013-8-7,76.8,67.4,60.5,61.4,54.8,46.8,96,68,37,29.91,29.66,0,0,0,0.01
2013-8-8,76.8,66.1,57.0,60.7,56.2,53.2,91,72,50,29.93,29.86,0,0,0,0.00
2013-8-9,77.0,68.1,58.9,60.1,54.7,49.8,93,65,40,30.00,29.87,0,0,0,0.00
2013-8-10,76.8,68.7,61.8,55.6,52.7,44.4,75,58,39,30.07,29.97,0,0,0,0.00
2013-8-11,80.1,71.1,65.5,65.3,59.7,52.9,82,68,54,29.97,29.87,0,0,0,0.00
2013-8-12,80.9,71.5,62.0,64.1,56.7,50.7,89,63,38,29.94,29.87,0,0,0,0.00
2013-8-13,77.0,66.1,57.2,55.2,50.6,43.8,86,60,33,30.07,29.94,0,0,0,0.00
2013-8-14,76.3,71.3,62.4,55.1,51.8,49.2,69,51,42,30.08,29.99,0,0,0,0.00
2013-8-15,78.8,66.9,55.1,59.1,54.5,50.0,86,66,44,30.01,29.96,0,0,0,0.00
2013-8-16,77.9,65.5,59.2,57.6,55.2,52.9,88,71,44,30.07,30.00,0,0,0,0.00
2013-8-17,82.4,70.3,57.5,57.7,54.8,52.5,88,61,37,30.08,29.98,0,0,0,0.00
2013-8-18,82.0,72.3,61.5,58.6,56.0,52.5,80,58,40,30.02,29.88,0,0,0,0.00
2013-8-19,86.5,75.7,68.1,68.2,62.7,56.4,75,64,52,29.90,29.76,0,0,0,0.00
2013-8-20,89.9,79.8,71.6,72.7,68.2,64.2,81,69,54,29.78,29.71,0,0,0,0.00
2013-8-21,85.9,79.6,73.0,74.8,70.1,60.3,88,74,50,29.85,29.69,0,0,0,0.00
2013-8-22,84.0,77.1,67.8,60.9,51.7,46.9,58,42,31,30.00,29.84,0,0,0,0.00
2013-8-23,87.0,75.1,61.0,65.2,57.3,47.7,70,55,41,30.03,29.90,0,0,0,0.00
2013-8-24,89.9,79.5,70.6,70.5,67.4,63.4,80,67,52,29.94,29.80,0,0,0,0.00
2013-8-25,93.8,84.7,77.4,74.2,71.6,69.4,81,66,50,29.86,29.78,0,0,0,0.00
2013-8-26,92.9,83.7,77.4,76.9,73.7,71.4,89,73,53,29.84,29.69,0,0,0,0.00
2013-8-27,91.6,83.8,77.2,79.2,74.0,71.0,85,73,57,29.76,29.64,0,0,0,0.00
2013-8-28,88.8,81.2,73.2,73.2,69.0,63.9,89,68,44,29.86,29.76,0,0,0,0.00
2013-8-29,91.6,82.6,74.9,77.2,71.3,66.7,92,71,46,29.85,29.70,0,0,0,0.06
2013-8-30,81.1,77.4,72.0,71.1,66.3,60.9,84,69,57,29.80,29.67,0,0,0,0.00
2013-8-31,88.0,75.2,65.6,69.3,64.6,61.3,88,71,51,29.76,29.57,0,0,0,0.13
2013-9-1,70.3,68.0,63.7,65.0,61.9,52.5,85,81,67,29.86,29.59,0,0,0,0.01
2013-9-2,65.5,60.2,55.6,53.4,51.2,49.0,84,73,62,29.98,29.86,0,0,0,0.00
2013-9-3,76.5,63.0,50.2,58.9,53.6,47.3,93,73,50,29.99,29.88,0,0,0,0.00
2013-9-4,83.4,71.1,58.6,68.5,60.2,54.7,92,70,52,30.01,29.89,0,0,0,0.00
2013-9-5,80.5,71.9,63.2,65.4,58.3,51.5,78,63,51,30.10,29.97,0,0,0,0.00
2013-9-6,90.5,79.2,70.1,70.4,65.2,60.7,90,65,40,29.97,29.72,0,0,0,0.01
2013-9-7,89.7,80.2,70.6,73.1,66.1,60.3,87,64,44,29.87,29.71,0,0,0,0.00
2013-9-8,74.7,70.5,66.0,64.0,59.7,54.4,77,69,62,29.92,29.76,0,0,0,0.00
2013-9-9,90.1,78.2,69.9,72.2,68.1,63.7,90,73,52,29.76,29.48,0,0,0,0.00
2013-9-10,78.8,74.2,69.3,71.7,65.0,59.1,88,74,59,29.85,29.61,0,0,0,0.01
2013-9-11,82.8,75.0,65.5,62.3,56.0,48.5,83,54,33,29.93,29.85,0,0,0,0.00
2013-9-12,69.1,64.3,58.0,53.0,50.1,48.6,81,61,48,30.07,29.93,0,0,0,0.00
2013-9-13,63.5,60.2,57.2,45.7,44.6,44.0,62,57,51,30.01,29.99,0,0,0,0.00
2013-9-14,71.3,59.9,51.6,57.1,48.3,40.9,94,68,44,29.98,29.79,0,0,0,0.38
2013-9-15,63.7,58.7,52.8,57.4,53.3,44.4,95,83,67,30.21,29.76,0,0,0,0.24
2013-9-16,64.5,54.7,44.3,44.9,41.4,39.1,87,63,41,30.31,30.15,0,0,0,0.00
2013-9-17,69.1,57.7,49.5,57.0,48.9,40.8,94,73,55,30.15,29.83,0,0,0,0.06
2013-9-18,72.0,66.2,58.9,69.4,64.1,57.5,96,93,85,29.83,29.56,0,0,0,0.08
2013-9-19,75.1,70.0,65.2,70.4,65.7,60.6,93,86,75,29.67,29.50,0,0,0,0.25
2013-9-20,64.2,59.2,52.3,58.2,51.9,46.7,86,77,56,29.82,29.66,0,0,0,0.04
2013-9-21,61.0,54.2,48.0,47.9,46.0,44.2,90,75,58,29.89,29.81,0,0,0,0.00
2013-9-22,71.6,59.3,46.5,54.8,49.1,42.1,88,70,52,29.87,29.74,0,0,0,0.00
2013-9-23,72.1,63.4,54.1,52.5,50.4,47.7,81,64,47,29.84,29.76,0,0,0,0.00
2013-9-24,73.3,63.3,53.1,53.0,50.7,48.5,85,65,44,29.86,29.79,0,0,0,0.00
2013-9-25,73.9,62.8,52.3,55.4,50.6,46.8,89,66,46,29.87,29.76,0,0,0,0.00
2013-9-26,80.5,68.4,56.3,60.1,55.2,50.5,81,64,46,29.82,29.70,0,0,0,0.00
2013-9-27,82.8,73.3,66.0,63.2,60.0,58.1,79,64,46,29.79,29.67,0,0,0,0.00
2013-9-28,73.9,62.3,50.5,63.1,54.1,44.4,91,75,59,29.84,29.51,0,0,0,0.20
2013-9-29,74.7,60.7,46.4,47.0,44.5,41.8,86,60,32,29.86,29.67,0,0,0,0.00
2013-9-30,78.1,68.4,59.8,51.8,48.7,44.8,62,50,38,29.67,29.47,0,0,0,0.00
2013-10-1,75.6,66.2,53.2,51.8,44.8,34.6,64,48,25,29.86,29.46,0,0,0,0.00
2013-10-2,75.3,60.3,45.7,55.5,43.1,37.0,94,59,27,29.95,29.74,0,0,0,0.75
2013-10-3,59.3,57.9,56.9,57.3,56.1,55.0,95,94,90,29.82,29.71,0,0,0,0.07
2013-10-4,58.3,56.6,55.1,55.8,53.9,52.5,94,91,86,29.88,29.74,0,0,0,0.10
2013-10-5,59.5,55.7,46.1,58.1,51.7,42.4,95,87,67,29.78,29.63,0,0,0,0.11
2013-10-6,52.6,47.3,41.2,50.0,44.6,38.5,92,90,87,29.74,29.59,0,0,0,0.08
2013-10-7,66.0,52.0,41.6,49.6,43.4,39.3,94,76,42,29.88,29.73,0,0,0,0.00
2013-10-8,75.1,61.6,47.4,48.2,44.7,41.5,85,58,34,29.87,29.71,0,0,0,0.00
2013-10-9,73.9,66.2,58.7,51.8,48.7,46.3,68,54,42,29.92,29.80,0,0,0,0.00
2013-10-10,76.0,64.9,51.6,52.9,48.4,44.6,78,57,39,29.92,29.76,0,0,0,0.00
2013-10-11,73.2,66.0,56.7,60.3,53.2,49.7,84,64,49,29.76,29.51,1,0,1,0.06
2013-10-12,60.7,51.5,45.2,56.2,43.4,38.7,87,74,61,30.06,29.57,1,0,2,0.00
2013-10-13,60.4,48.0,37.6,42.4,37.3,33.2,87,69,41,30.33,30.08,0,0,1,0.00
2013-10-14,54.2,48.1,40.5,46.7,38.9,35.7,86,71,53,30.31,29.88,1,0,1,0.04
2013-10-15,53.1,49.8,46.8,51.7,48.2,45.4,95,94,88,29.88,29.56,1,0,4,0.00
2013-10-16,51.7,45.8,40.2,45.0,40.5,33.5,95,83,61,29.86,29.72,0,0,1,0.00
2013-10-17,58.0,47.2,39.2,47.0,39.2,33.2,91,75,49,29.79,29.66,0,0,1,0.01
2013-10-18,54.5,45.6,39.8,43.0,36.8,30.7,93,74,45,29.88,29.73,0,0,1,0.00
2013-10-19,47.3,42.0,37.5,41.6,37.0,32.8,91,82,72,29.74,29.59,0,0,2,0.00
2013-10-20,46.2,38.9,33.5,40.2,34.9,29.8,92,86,78,29.78,29.52,1,0,4,0.03
2013-10-21,39.6,36.7,32.7,34.8,25.4,22.5,83,64,53,29.88,29.78,1,0,2,0.01
2013-10-22,41.6,35.7,27.2,33.1,28.1,22.1,87,74,62,29.95,29.88,0,0,0,0.00
2013-10-23,40.1,37.0,35.0,33.1,26.9,20.9,84,68,53,30.02,29.92,1,0,2,0.00
2013-10-24,46.8,39.8,34.6,31.6,27.4,21.7,77,61,52,30.22,30.03,0,0,0,0.00
2013-10-25,58.1,46.0,31.2,42.1,34.8,27.5,87,66,51,30.23,29.67,0,0,0,0.00
2013-10-26,53.1,44.1,37.0,42.0,30.1,27.3,71,58,49,30.02,29.68,0,0,0,0.00
2013-10-27,54.4,42.6,31.3,33.3,29.6,26.1,82,62,43,30.03,29.72,0,0,0,0.00
2013-10-28,41.5,37.6,32.5,28.8,22.8,18.8,76,56,41,30.36,30.04,0,0,0,0.00
2013-10-29,40.8,37.3,32.1,35.7,26.9,20.2,84,66,58,30.34,30.02,0,0,0,0.01
2013-10-30,49.2,44.6,39.9,47.8,42.8,36.1,95,93,86,30.01,29.58,0,0,0,0.00
2013-10-31,49.5,43.5,40.3,48.1,41.8,37.5,95,93,89,29.57,29.30,0,0,0,0.00
2013-11-1,50.1,43.5,38.5,38.5,35.7,30.7,91,75,56,29.75,29.31,0,0,0,0.00
2013-11-2,49.5,40.4,33.7,35.4,30.2,27.7,83,68,48,30.01,29.76,0,0,0,0.00
2013-11-3,53.9,44.1,33.7,34.3,31.2,27.8,83,62,41,30.02,29.80,0,0,0,0.00
2013-11-4,47.9,44.4,34.7,44.3,36.3,30.9,90,74,56,30.07,29.74,0,0,0,0.02
2013-11-5,45.4,35.0,29.5,37.6,29.7,25.2,92,82,49,30.16,29.95,0,0,1,0.01
2013-11-6,40.6,34.2,30.3,30.8,27.2,21.9,92,77,51,30.09,29.95,0,0,0,0.00
2013-11-7,35.9,29.8,24.5,30.3,25.4,20.6,91,83,77,30.17,30.09,0,0,0,0.00
2013-11-8,44.9,34.9,23.6,38.2,26.8,20.0,90,74,53,30.13,29.51,0,0,0,0.00
2013-11-9,44.5,41.1,36.5,38.8,31.9,24.8,83,70,56,30.10,29.53,0,0,0,0.00
2013-11-10,44.3,38.2,30.7,30.4,27.5,22.1,76,66,51,30.26,30.02,0,0,0,0.00
2013-11-11,38.5,26.0,16.9,30.3,12.2,6.3,75,56,43,30.67,30.03,0,0,0,0.00
2013-11-12,29.8,21.0,13.3,12.6,7.8,5.2,72,58,37,30.75,30.41,0,0,0,0.00
2013-11-13,48.6,36.1,22.4,33.0,22.3,12.1,66,57,45,30.39,29.80,0,0,0,0.00
2013-11-14,49.8,40.3,35.0,36.2,31.4,28.1,78,71,58,29.78,29.66,0,0,0,0.00
2013-11-15,56.5,42.4,29.4,39.3,32.7,25.3,90,70,47,29.77,29.54,0,0,0,0.00
2013-11-16,48.2,44.6,41.6,46.6,40.9,33.3,94,87,67,29.53,29.13,0,0,0,0.02
2013-11-17,43.6,39.5,32.7,41.6,35.1,24.7,94,84,72,29.73,29.20,0,0,0,0.00
2013-11-18,37.0,30.6,25.6,23.8,19.8,16.5,72,64,52,30.19,29.74,0,0,0,0.00
2013-11-19,45.5,34.5,23.3,29.2,23.5,15.6,82,65,48,30.20,29.84,0,0,0,0.00
2013-11-20,43.8,41.5,37.6,33.2,28.7,24.4,84,62,48,29.94,29.80,0,0,0,0.00
2013-11-21,38.3,31.9,25.3,35.3,26.9,15.2,90,82,65,30.45,29.95,0,0,0,0.00
2013-11-22,32.7,24.1,14.1,14.7,10.1,1.6,73,56,34,30.58,30.40,0,0,0,0.01
2013-11-23,19.4,13.0,7.4,4.1,0.2,-3.7,71,57,39,30.81,30.58,0,0,0,0.00
2013-11-24,30.2,25.4,8.6,15.0,10.2,-0.4,69,53,43,30.68,29.91,0,0,0,0.00
2013-11-25,38.8,33.2,27.5,27.8,21.8,15.0,77,63,55,30.00,29.84,0,0,0,0.00
2013-11-26,30.1,21.6,15.1,18.6,6.2,0.2,64,51,40,30.34,30.00,0,0,0,0.00
2013-11-27,24.1,18.3,10.0,9.4,5.8,2.3,74,58,46,30.34,30.03,0,0,0,0.00
2013-11-28,29.4,22.9,15.1,13.0,9.9,6.1,67,57,47,30.46,30.01,0,0,0,0.00
2013-11-29,32.4,23.5,12.4,19.7,13.3,5.4,77,65,51,30.47,30.09,0,0,0,0.00
2013-11-30,40.9,32.1,23.5,26.1,21.8,16.7,81,66,54,30.08,29.95,0,0,0,0.00
2013-12-1,35.5,28.8,21.0,25.8,20.4,15.8,84,71,61,30.13,29.87,0,0,0,0.00
2013-12-2,36.8,32.3,28.2,32.9,27.8,21.9,93,83,74,29.85,29.50,0,0,0,0.00
2013-12-3,35.0,34.0,31.6,33.4,32.4,29.8,94,93,93,29.71,29.49,0,0,0,0.01
2013-12-4,31.5,28.1,15.6,29.7,25.8,10.0,93,91,78,29.70,29.40,0,0,0,0.00
2013-12-5,14.6,7.0,0.5,9.0,-1.1,-7.3,78,69,57,30.31,29.64,0,0,0,0.00
2013-12-6,9.5,-0.4,-6.1,-3.1,-9.2,-14.8,73,66,54,30.63,30.32,0,0,0,0.00
2013-12-7,6.0,-3.9,-11.5,-7.5,-13.7,-19.1,71,62,49,30.73,30.57,0,0,0,0.00
2013-12-8,12.9,7.1,-2.6,6.0,0.2,-11.5,79,73,65,30.56,30.00,0,0,0,0.00
2013-12-9,11.4,1.6,-3.3,6.2,-6.5,-12.8,80,68,55,30.10,29.87,0,0,0,0.00
2013-12-10,11.7,6.7,1.8,4.7,-1.7,-5.7,80,68,53,30.23,29.74,0,0,0,0.00
2013-12-11,6.3,-1.9,-7.5,-4.0,-12.6,-16.8,66,60,46,30.55,30.25,0,0,0,0.00
2013-12-12,21.4,12.3,0.5,8.5,3.1,-7.9,76,66,54,30.29,30.10,0,0,0,0.00
2013-12-13,17.5,14.4,11.6,9.6,6.0,4.0,75,69,63,30.25,30.08,0,0,0,0.00
2013-12-14,19.5,11.0,1.5,8.2,3.3,-6.6,78,71,59,30.25,30.06,0,0,0,0.00
2013-12-15,8.1,2.2,-0.4,-6.7,-9.0,-10.7,67,59,47,30.15,30.07,0,0,0,0.00
2013-12-16,18.0,9.3,1.5,14.5,1.4,-10.6,86,70,56,30.11,29.87,0,0,0,0.00
2013-12-17,30.9,22.7,9.3,27.2,14.9,0.9,89,72,61,30.07,29.81,0,0,0,0.00
2013-12-18,35.5,22.8,8.1,24.9,15.5,0.6,83,74,62,30.03,29.58,0,0,0,0.00
2013-12-19,27.6,18.9,16.4,22.2,11.5,7.6,80,73,62,30.02,29.73,0,0,0,0.00
2013-12-20,20.5,17.5,14.6,12.3,11.5,9.8,81,77,69,29.99,29.80,0,0,0,0.00
2013-12-21,23.9,19.7,17.3,14.6,12.7,11.3,78,74,66,29.91,29.81,0,0,0,0.00
2013-12-28,45.8,31.2,20.3,35.4,25.5,15.4,92,80,55,29.94,29.55,0,0,0,0.01
2013-12-29,19.2,1.1,-11.2,14.0,-10.3,-22.6,80,58,46,30.30,29.95,0,0,0,0.00
2013-12-30,2.8,-4.0,-12.0,-5.1,-12.7,-23.0,72,65,56,30.30,30.18,0,0,0,0.00
2013-12-31,1.4,-4.2,-7.6,-8.9,-12.9,-16.8,72,66,56,30.42,30.18,0,0,0,0.00
2014-1-1,0.1,-5.1,-7.1,-10.9,-15.4,-17.7,62,60,59,30.49,30.40,0,0,0,0.00